SQ9NFI-4 Weather Reports


Display with metric or nautical units.
time (UTC)temp
F
wind
direction
speed
MPH
gust
MPH
rain 1hr
in
rain 24hr
in
rain mn
in
humidity
%
barometer
mb
20260904154653 79 290 5.0 7.0 0.00 0.00 0.00 57 1011.5
20260904154153 79 281 8.0 13.0 0.00 0.00 0.00 56 1011.5
20260904153653 79 283 8.0 8.0 0.00 0.00 0.00 56 1011.5
20260904153153 79 301 3.0 6.0 0.00 0.00 0.00 56 1011.5
20260904152653 80 286 11.0 11.0 0.00 0.00 0.00 55 1011.5
20260904152153 79 165 3.0 5.0 0.00 0.00 0.00 57 1011.5
20260904151653 78 149 6.0 6.0 0.00 0.00 0.00 60 1011.5
20260904151153 78 312 1.0 4.0 0.00 0.00 0.00 60 1011.9
20260904150653 78 310 7.0 10.0 0.00 0.00 0.00 60 1011.9
20260904150153 77 235 5.0 5.0 0.00 0.00 0.00 60 1012.2
20260904145653 77 162 6.0 6.0 0.00 0.00 0.00 60 1012.2
20260904145153 76 287 5.0 9.0 0.00 0.00 0.00 61 1012.2
20260904144653 76 273 5.0 6.0 0.00 0.00 0.00 62 1012.5
20260904144153 76 279 9.0 13.0 0.00 0.00 0.00 61 1012.5
20260904143653 76 184 8.0 12.0 0.00 0.00 0.00 61 1012.5
20260904143153 76 236 3.0 5.0 0.00 0.00 0.00 62 1012.5
20260904142653 76 288 8.0 11.0 0.00 0.00 0.00 61 1012.5
20260904142153 76 276 12.0 18.0 0.00 0.00 0.00 61 1012.5
20260904141653 76 199 8.0 8.0 0.00 0.00 0.00 62 1012.5
20260904141153 76 300 4.0 6.0 0.00 0.00 0.00 61 1012.5
20260904140653 76 318 11.0 13.0 0.00 0.00 0.00 61 1012.5
20260904140153 76 292 13.0 13.0 0.00 0.00 0.00 61 1012.5
20260904135653 76 306 6.0 6.0 0.00 0.00 0.00 61 1012.5
20260904135153 76 304 1.0 1.0 0.00 0.00 0.00 62 1012.5
20260904134653 77 267 11.0 15.0 0.00 0.00 0.00 60 1013.2
20260904134153 77 232 6.0 6.0 0.00 0.00 0.00 59 1013.2
20260904133653 78 259 9.0 14.0 0.00 0.00 0.00 58 1013.2
20260904133153 78 176 11.0 13.0 0.00 0.00 0.00 58 1013.2
20260904132653 78 319 11.0 12.0 0.00 0.00 0.00 58 1013.2
20260904132153 78 210 10.0 13.0 0.00 0.00 0.00 59 1013.6
20260904131653 76 315 12.0 16.0 0.00 0.00 0.00 60 1013.6
20260904131153 76 267 6.0 9.0 0.00 0.00 0.00 60 1013.9
20260904130653 75 194 10.0 10.0 0.00 0.00 0.00 62 1013.9
20260904130153 76 287 6.0 8.0 0.00 0.00 0.00 61 1013.9
20260904125653 75 245 4.0 5.0 0.00 0.00 0.00 62 1013.9
20260904125153 75 294 6.0 10.0 0.00 0.00 0.00 62 1013.9
20260904124653 75 293 3.0 6.0 0.00 0.00 0.00 63 1013.9
20260904124153 74 340 6.0 16.0 0.00 0.00 0.00 64 1013.9
20260904123653 74 180 4.0 10.0 0.00 0.00 0.00 64 1013.9
20260904123153 74 280 6.0 6.0 0.00 0.00 0.00 64 1013.9
20260904122653 74 210 10.0 10.0 0.00 0.00 0.00 64 1014.2
20260904122153 74 162 6.0 7.0 0.00 0.00 0.00 63 1014.2
20260904121653 74 324 10.0 20.0 0.00 0.00 0.00 62 1014.2
20260904121153 75 220 9.0 12.0 0.00 0.00 0.00 62 1014.2
20260904120653 75 172 9.0 11.0 0.00 0.00 0.00 62 1014.2
20260904120153 75 228 10.0 10.0 0.00 0.00 0.00 61 1014.2
20260904115653 76 270 3.0 6.0 0.00 0.00 0.00 60 1014.2
20260904115153 77 301 8.0 8.0 0.00 0.00 0.00 57 1014.6
20260904114653 77 246 4.0 8.0 0.00 0.00 0.00 57 1014.6
20260904114153 78 231 10.0 13.0 0.00 0.00 0.00 56 1014.6
20260904113653 77 282 10.0 19.0 0.00 0.00 0.00 56 1014.6
20260904113153 76 278 4.0 17.0 0.00 0.00 0.00 57 1014.6
20260904112653 78 291 7.0 12.0 0.00 0.00 0.00 55 1014.9
20260904112153 76 244 7.0 10.0 0.00 0.00 0.00 58 1014.9
20260904111653 77 180 14.0 21.0 0.00 0.00 0.00 56 1015.2
20260904111153 78 275 6.0 7.0 0.00 0.00 0.00 55 1015.2
20260904110653 77 293 9.0 13.0 0.00 0.00 0.00 56 1015.2
20260904110153 76 180 9.0 11.0 0.00 0.00 0.00 58 1015.2
20260904105653 74 237 15.0 15.0 0.00 0.00 0.00 59 1015.2
20260904105153 74 287 10.0 11.0 0.00 0.00 0.00 60 1015.2
20260904104653 75 286 8.0 9.0 0.00 0.00 0.00 60 1015.2
20260904104153 74 305 6.0 8.0 0.00 0.00 0.00 61 1015.2
20260904103653 74 238 9.0 15.0 0.00 0.00 0.00 61 1015.2
20260904103153 74 231 9.0 11.0 0.00 0.00 0.00 59 1015.2
20260904102653 74 300 6.0 9.0 0.00 0.00 0.00 61 1015.2
20260904102153 74 289 10.0 15.0 0.00 0.00 0.00 61 1015.2
20260904101653 75 223 10.0 15.0 0.00 0.00 0.00 58 1015.2
20260904101153 76 336 13.0 21.0 0.00 0.00 0.00 58 1015.2
20260904100653 76 294 9.0 10.0 0.00 0.00 0.00 59 1015.2
20260904100153 77 245 6.0 6.0 0.00 0.00 0.00 60 1015.9
20260904095653 77 186 3.0 5.0 0.00 0.00 0.00 61 1015.9
20260904095153 74 280 6.0 6.0 0.00 0.00 0.00 61 1015.9
20260904094653 75 289 6.0 10.0 0.00 0.00 0.00 62 1015.9
20260904094153 73 245 4.0 13.0 0.00 0.00 0.00 63 1015.9
20260904093653 74 237 3.0 6.0 0.00 0.00 0.00 65 1016.3
20260904093153 73 290 6.0 10.0 0.00 0.00 0.00 67 1016.3
20260904092653 73 338 6.0 10.0 0.00 0.00 0.00 64 1016.6
20260904092153 73 286 11.0 11.0 0.00 0.00 0.00 63 1016.6
20260904091653 73 284 6.0 10.0 0.00 0.00 0.00 65 1016.6
20260904091153 73 299 5.0 5.0 0.00 0.00 0.00 65 1016.6
20260904090653 73 171 6.0 6.0 0.00 0.00 0.00 65 1016.6
20260904090153 72 278 9.0 10.0 0.00 0.00 0.00 65 1016.6
20260904085653 73 275 9.0 15.0 0.00 0.00 0.00 65 1016.6
20260904085153 73 295 14.0 14.0 0.00 0.00 0.00 66 1016.6
20260904084653 73 269 7.0 7.0 0.00 0.00 0.00 67 1016.6
20260904084153 72 278 6.0 7.0 0.00 0.00 0.00 66 1016.6
20260904083653 72 294 5.0 9.0 0.00 0.00 0.00 67 1016.9
20260904083153 73 312 5.0 5.0 0.00 0.00 0.00 66 1016.9
20260904082653 73 228 9.0 14.0 0.00 0.00 0.00 66 1016.6
20260904082153 74 316 6.0 6.0 0.00 0.00 0.00 67 1016.6
20260904081653 73 343 11.0 13.0 0.00 0.00 0.00 65 1016.6
20260904081153 73 320 6.0 6.0 0.00 0.00 0.00 67 1016.6
20260904080653 72 315 8.0 8.0 0.00 0.00 0.00 66 1016.6
20260904080153 71 286 9.0 9.0 0.00 0.00 0.00 68 1016.9
20260904075653 72 327 4.0 6.0 0.00 0.00 0.00 70 1016.9
20260904075153 71 233 4.0 6.0 0.00 0.00 0.00 72 1016.9
20260904074653 69 312 3.0 10.0 0.00 0.00 0.00 73 1016.9
20260904074153 69 285 10.0 10.0 0.00 0.00 0.00 72 1016.9
20260904073653 69 270 7.0 8.0 0.00 0.00 0.00 73 1017.3
20260904073153 69 165 5.0 5.0 0.00 0.00 0.00 75 1017.3
20260904072653 67 286 2.0 2.0 0.00 0.00 0.00 76 1017.3
20260904072153 67 281 2.0 2.0 0.00 0.00 0.00 77 1017.3
20260904071653 67 268 5.0 7.0 0.00 0.00 0.00 77 1017.3
20260904071153 67 313 3.0 8.0 0.00 0.00 0.00 78 1017.3
20260904070653 67 335 4.0 6.0 0.00 0.00 0.00 77 1017.3
20260904070153 67 294 5.0 6.0 0.00 0.00 0.00 77 1017.3
20260904065653 67 293 2.0 3.0 0.00 0.00 0.00 78 1017.3
20260904065153 67 293 2.0 3.0 0.00 0.00 0.00 78 1017.3
20260904064903 67 315 4.0 4.0 0.00 0.00 0.00 78 1017.3
20260904064403 66 242 3.0 6.0 0.00 0.00 0.00 79 1017.3
20260904063903 66 295 6.0 10.0 0.00 0.00 0.00 79 1017.3
20260904063403 65 333 5.0 9.0 0.00 0.00 0.00 80 1017.3
20260904062903 65 302 9.0 13.0 0.00 0.00 0.00 79 1017.3
20260904062403 65 268 4.0 4.0 0.00 0.00 0.00 79 1017.3
20260904061903 65 311 4.0 9.0 0.00 0.00 0.00 78 1017.3
20260904061403 65 299 10.0 10.0 0.00 0.00 0.00 79 1016.9
20260904060903 65 304 3.0 5.0 0.00 0.00 0.00 80 1016.9
20260904060403 65 239 2.0 2.0 0.00 0.00 0.00 80 1016.9
20260904055903 65 272 1.0 3.0 0.00 0.00 0.00 80 1016.9
20260904055403 65 322 4.0 5.0 0.00 0.00 0.00 79 1016.9
20260904054903 65 319 1.0 2.0 0.00 0.00 0.00 79 1016.9
20260904054403 65 294 10.0 13.0 0.00 0.00 0.00 79 1016.9
20260904053903 65 312 8.0 13.0 0.00 0.00 0.00 79 1016.9
20260904053403 65 286 4.0 4.0 0.00 0.00 0.00 80 1017.3
20260904052903 64 300 1.0 1.0 0.00 0.00 0.00 81 1017.3
20260904052403 64 308 4.0 6.0 0.00 0.00 0.00 80 1016.9
20260904051903 64 270 2.0 4.0 0.00 0.00 0.00 81 1016.9
20260904051403 64 265 2.0 3.0 0.00 0.00 0.00 81 1017.3
20260904050903 64 292 3.0 5.0 0.00 0.00 0.00 81 1017.3
20260904050403 64 337 4.0 6.0 0.00 0.00 0.00 82 1017.3
20260904045903 64 327 2.0 5.0 0.00 0.00 0.00 82 1016.9
20260904045403 63 231 4.0 6.0 0.00 0.00 0.00 83 1016.9
20260904044903 62 322 0.0 1.0 0.00 0.00 0.00 84 1016.9
20260904044403 62 308 1.0 2.0 0.00 0.00 0.00 84 1016.9
20260904043904 62 327 0.0 0.0 0.00 0.00 0.00 84 1016.9
20260904043403 62 270 2.0 4.0 0.00 0.00 0.00 84 1016.9
20260904042903 62 302 1.0 1.0 0.00 0.00 0.00 84 1016.9
20260904042403 62 316 1.0 1.0 0.00 0.00 0.00 84 1016.9
20260904041903 62 321 1.0 2.0 0.00 0.00 0.00 84 1016.9
20260904041403 62 321 0.0 1.0 0.00 0.00 0.00 84 1016.9
20260904040903 62 310 2.0 3.0 0.00 0.00 0.00 84 1016.9
20260904040403 62 318 0.0 0.0 0.00 0.00 0.00 84 1016.9
20260904035903 62 324 0.0 0.0 0.00 0.00 0.00 84 1016.9
20260904035403 62 305 2.0 2.0 0.00 0.00 0.00 83 1016.9
20260904034903 62 317 1.0 3.0 0.00 0.00 0.00 84 1017.3
20260904034403 62 323 2.0 3.0 0.00 0.00 0.00 83 1017.3
20260904033903 62 312 1.0 1.0 0.00 0.00 0.00 83 1017.3
20260904033403 62 318 2.0 3.0 0.00 0.00 0.00 82 1016.9
20260904032903 62 297 3.0 4.0 0.00 0.00 0.00 81 1016.9
20260904032403 62 303 3.0 4.0 0.00 0.00 0.00 82 1016.9
20260904031903 63 311 1.0 1.0 0.00 0.00 0.00 81 1016.9
20260904031403 63 324 1.0 1.0 0.00 0.00 0.00 81 1017.3
20260904030903 63 318 1.0 1.0 0.00 0.00 0.00 80 1017.3
20260904030403 63 329 1.0 2.0 0.00 0.00 0.00 80 1017.3
20260904025903 63 316 2.0 2.0 0.00 0.00 0.00 79 1017.3
20260904025403 64 296 1.0 1.0 0.00 0.00 0.00 79 1017.3
20260904024903 64 317 2.0 4.0 0.00 0.00 0.00 79 1017.3
20260904024403 64 289 0.0 1.0 0.00 0.00 0.00 79 1017.3
20260904023903 64 292 3.0 3.0 0.00 0.00 0.00 78 1017.3
20260904023403 64 321 3.0 3.0 0.00 0.00 0.00 78 1017.3
20260904022903 64 318 3.0 3.0 0.00 0.00 0.00 79 1017.3
20260904022403 64 320 1.0 2.0 0.00 0.00 0.00 79 1017.3
20260904021903 64 327 1.0 2.0 0.00 0.00 0.00 79 1017.3
20260904021403 64 309 4.0 6.0 0.00 0.00 0.00 77 1016.9
20260904020903 64 313 1.0 3.0 0.00 0.00 0.00 78 1016.9
20260904020403 64 325 1.0 1.0 0.00 0.00 0.00 78 1016.9
20260904015903 64 286 4.0 4.0 0.00 0.00 0.00 78 1017.3
20260904015403 63 316 2.0 2.0 0.00 0.00 0.00 79 1017.3
20260904014903 63 317 0.0 1.0 0.00 0.00 0.00 80 1017.3
20260904014403 63 317 1.0 1.0 0.00 0.00 0.00 81 1017.3
20260904013903 63 318 0.0 1.0 0.00 0.00 0.00 80 1017.3
20260904013403 63 292 3.0 4.0 0.00 0.00 0.00 79 1016.9
20260904012903 63 315 3.0 4.0 0.00 0.00 0.00 81 1016.9
20260904012403 63 316 1.0 1.0 0.00 0.00 0.00 80 1017.3
20260904011903 62 328 1.0 1.0 0.00 0.00 0.00 81 1017.3
20260904011403 62 321 0.0 0.0 0.00 0.00 0.00 81 1017.3
20260904010903 63 316 1.0 1.0 0.00 0.00 0.00 80 1017.3
20260904010403 63 314 0.0 1.0 0.00 0.00 0.00 80 1017.3
20260904005903 63 321 0.0 0.0 0.00 0.00 0.00 81 1017.3
20260904005403 63 313 2.0 2.0 0.00 0.00 0.00 80 1017.3
20260904004903 62 311 0.0 1.0 0.00 0.00 0.00 82 1017.3
20260904004403 63 326 1.0 1.0 0.00 0.00 0.00 80 1017.3
20260904003903 62 319 0.0 1.0 0.00 0.00 0.00 85 1017.3
20260904003403 62 327 0.0 0.0 0.00 0.00 0.00 87 1017.3
20260904002903 62 331 0.0 0.0 0.00 0.00 0.00 83 1017.3
20260904002403 62 324 0.0 0.0 0.00 0.00 0.00 80 1017.3
20260904001903 62 286 1.0 1.0 0.00 0.00 0.00 81 1017.3
20260904001403 62 322 0.0 0.0 0.00 0.00 0.00 83 1017.3
20260904000903 62 321 1.0 1.0 0.00 0.00 0.00 83 1017.3
20260904000403 62 318 0.0 1.0 0.00 0.00 0.00 84 1017.3
20260903235903 62 323 0.0 0.0 0.00 0.00 0.00 82 1017.3
20260903235403 62 317 0.0 0.0 0.00 0.00 0.00 81 1017.3
20260903234903 62 322 0.0 0.0 0.00 0.00 0.00 82 1017.3
20260903234403 62 319 0.0 0.0 0.00 0.00 0.00 83 1017.3
20260903233903 62 330 1.0 1.0 0.00 0.00 0.00 82 1017.3
20260903233403 63 329 0.0 1.0 0.00 0.00 0.00 78 1017.3
20260903232903 62 306 0.0 1.0 0.00 0.00 0.00 82 1017.3
20260903232403 60 334 0.0 0.0 0.00 0.00 0.00 85 1017.3
20260903231903 60 297 2.0 5.0 0.00 0.00 0.00 88 1017.3
20260903231403 60 325 0.0 0.0 0.00 0.00 0.00 90 1017.3
20260903230903 60 335 0.0 0.0 0.00 0.00 0.00 91 1017.3
20260903230403 59 330 0.0 0.0 0.00 0.00 0.00 93 1017.3
20260903225903 59 338 1.0 1.0 0.00 0.00 0.00 96 1017.6
20260903225403 58 337 1.0 1.0 0.00 0.00 0.00 98 1017.6
20260903224903 58 337 0.0 0.0 0.00 0.00 0.00 98 1017.3
20260903224403 58 340 0.0 0.0 0.00 0.00 0.00 99 1017.3
20260903223903 58 337 0.0 0.0 0.00 0.00 0.00 99 1017.3
20260903223403 58 333 0.0 0.0 0.00 0.00 0.00 99 1017.3
20260903222903 57 337 0.0 0.0 0.00 0.00 0.00 99 1017.3
20260903222403 57 336 0.0 0.0 0.00 0.00 0.00 99 1017.6
20260903221903 57 335 0.0 0.0 0.00 0.00 0.00 99 1017.6
20260903221403 57 335 0.0 0.0 0.00 0.00 0.00 99 1017.6
20260903220903 56 337 0.0 1.0 0.00 0.00 0.00 99 1017.6
20260903220403 56 334 0.0 0.0 0.00 0.00 0.00 99 1017.6
20260903215903 56 333 0.0 0.0 0.00 0.00 0.00 99 1017.6
20260903215404 56 335 1.0 1.0 0.00 0.00 0.00 99 1017.6
20260903214903 56 333 0.0 0.0 0.00 0.00 0.00 99 1017.6
20260903214403 55 334 0.0 0.0 0.00 0.00 0.00 99 1017.6
20260903213903 55 327 1.0 1.0 0.00 0.00 0.00 99 1017.6
20260903213403 55 336 0.0 0.0 0.00 0.00 0.00 99 1017.6
20260903212903 55 336 0.0 0.0 0.00 0.00 0.00 99 1017.6
20260903212403 55 327 0.0 0.0 0.00 0.00 0.00 99 1017.6
20260903211903 55 328 0.0 0.0 0.00 0.00 0.00 99 1017.6
20260903211403 54 332 0.0 0.0 0.00 0.00 0.00 99 1017.6
20260903210903 55 331 0.0 1.0 0.00 0.00 0.00 99 1017.6
20260903210403 55 327 0.0 0.0 0.00 0.00 0.00 99 1017.6
20260903205903 55 329 0.0 0.0 0.00 0.00 0.00 99 1018.0
20260903205403 55 328 0.0 0.0 0.00 0.00 0.00 99 1018.0
20260903204903 55 327 0.0 0.0 0.00 0.00 0.00 99 1017.6
20260903204403 56 338 0.0 0.0 0.00 0.00 0.00 99 1017.6
20260903203903 56 337 0.0 0.0 0.00 0.00 0.00 99 1017.6
20260903203403 56 337 0.0 0.0 0.00 0.00 0.00 99 1018.0
20260903202903 56 338 0.0 0.0 0.00 0.00 0.00 99 1018.0
20260903202403 56 337 0.0 0.0 0.00 0.00 0.00 99 1018.0
20260903201903 55 337 0.0 0.0 0.00 0.00 0.00 99 1018.0
20260903201403 56 337 0.0 0.0 0.00 0.00 0.00 99 1018.0
20260903200903 56 337 0.0 0.0 0.00 0.00 0.00 99 1018.0
20260903200403 56 337 0.0 0.0 0.00 0.00 0.00 99 1018.0
20260903195903 56 337 0.0 0.0 0.00 0.00 0.00 99 1018.0
20260903195403 56 337 0.0 0.0 0.00 0.00 0.00 99 1018.0
20260903194903 56 336 0.0 0.0 0.00 0.00 0.00 99 1018.0
20260903194403 56 336 0.0 0.0 0.00 0.00 0.00 99 1018.0
20260903193903 56 336 0.0 0.0 0.00 0.00 0.00 99 1018.0
20260903193403 56 336 0.0 0.0 0.00 0.00 0.00 99 1018.0
20260903192903 56 336 0.0 0.0 0.00 0.00 0.00 99 1018.0
20260903192403 56 336 0.0 0.0 0.00 0.00 0.00 99 1018.0
20260903191903 56 336 0.0 0.0 0.00 0.00 0.00 99 1018.0
20260903191403 56 336 0.0 0.0 0.00 0.00 0.00 99 1018.0
20260903190903 56 336 0.0 0.0 0.00 0.00 0.00 99 1018.0
20260903190403 56 336 0.0 0.0 0.00 0.00 0.00 99 1018.0
20260903185903 56 335 0.0 0.0 0.00 0.00 0.00 99 1018.3
20260903185403 57 335 0.0 0.0 0.00 0.00 0.00 99 1018.3
20260903184903 57 336 0.0 0.0 0.00 0.00 0.00 99 1018.3
20260903184403 57 336 0.0 0.0 0.00 0.00 0.00 99 1018.3
20260903183903 57 336 0.0 0.0 0.00 0.00 0.00 99 1018.3
20260903183403 58 336 0.0 0.0 0.00 0.00 0.00 99 1018.0
20260903182903 58 336 0.0 0.0 0.00 0.00 0.00 99 1018.0
20260903182403 58 336 0.0 0.0 0.00 0.00 0.00 99 1018.0
20260903181903 58 335 0.0 0.0 0.00 0.00 0.00 98 1018.0
20260903181403 58 336 0.0 0.0 0.00 0.00 0.00 98 1018.3
20260903180903 58 330 1.0 1.0 0.00 0.00 0.00 98 1018.3
20260903180403 58 326 0.0 0.0 0.00 0.00 0.00 97 1018.3
20260903175903 58 326 0.0 0.0 0.00 0.00 0.00 95 1018.0
20260903175403 59 326 0.0 0.0 0.00 0.00 0.00 95 1018.0
20260903174903 60 326 0.0 0.0 0.00 0.00 0.00 94 1018.0
20260903174403 60 326 0.0 0.0 0.00 0.00 0.00 93 1018.0
20260903173903 60 326 0.0 0.0 0.00 0.00 0.00 91 1018.0
20260903173403 61 326 0.0 0.0 0.00 0.00 0.00 91 1018.0
20260903172903 62 326 0.0 0.0 0.00 0.00 0.00 91 1018.0
20260903172403 63 321 0.0 0.0 0.00 0.00 0.00 85 1018.0
20260903171903 64 321 0.0 0.0 0.00 0.00 0.00 84 1018.0
20260903171403 64 320 0.0 0.0 0.00 0.00 0.00 83 1018.0
20260903170903 65 321 0.0 0.0 0.00 0.00 0.00 83 1018.0
20260903170403 65 322 0.0 0.0 0.00 0.00 0.00 80 1018.0
20260903165903 67 315 0.0 1.0 0.00 0.00 0.00 79 1018.0
20260903165403 68 323 0.0 0.0 0.00 0.00 0.00 78 1018.0
20260903164903 68 320 0.0 0.0 0.00 0.00 0.00 77 1018.0
20260903164403 69 320 0.0 0.0 0.00 0.00 0.00 77 1018.0
20260903163903 69 320 0.0 0.0 0.00 0.00 0.00 73 1018.0
20260903163403 70 320 0.0 0.0 0.00 0.00 0.00 73 1018.0
20260903162903 70 320 0.0 0.0 0.00 0.00 0.00 70 1018.0
20260903162403 71 321 0.0 1.0 0.00 0.00 0.00 66 1018.0
20260903161903 71 275 1.0 1.0 0.00 0.00 0.00 62 1018.0
20260903161403 71 303 4.0 5.0 0.00 0.00 0.00 62 1018.0
20260903160903 71 326 3.0 3.0 0.00 0.00 0.00 61 1018.0
20260903160403 72 315 1.0 2.0 0.00 0.00 0.00 60 1018.0
20260903155903 72 315 1.0 1.0 0.00 0.00 0.00 59 1018.0
20260903155403 73 318 2.0 3.0 0.00 0.00 0.00 57 1018.0